JE4YIZ-13 Weather Reports


Display with metric or nautical units.
time (UTC)temp
F
wind
direction
speed
MPH
gust
MPH
rain 1hr
in
rain 24hr
in
rain mn
in
humidity
%
barometer
mb
20260510211628 54 174 0.0 1.0 0.00 0.00 0.00 89 1016.0
20260510211134 54 174 0.0 0.0 0.00 0.00 0.00 89 1016.0
20260510210642 54 174 0.0 0.0 0.00 0.00 0.00 89 1016.0
20260510210134 54 174 0.0 0.0 0.00 0.00 0.00 89 1016.0
20260510205623 54 174 0.0 0.0 0.00 0.00 0.00 89 1016.0
20260510205135 54 174 0.0 0.0 0.00 0.00 0.00 89 1015.9
20260510204619 53 174 0.0 0.0 0.00 0.00 0.00 89 1015.8
20260510204111 53 174 0.0 0.0 0.00 0.00 0.00 88 1015.8
20260510203624 53 174 0.0 0.0 0.00 0.00 0.00 88 1015.7
20260510203131 53 174 0.0 0.0 0.00 0.00 0.00 88 1015.8
20260510202617 53 174 0.0 0.0 0.00 0.00 0.00 88 1015.8
20260510202130 54 174 0.0 0.0 0.00 0.00 0.00 88 1015.8
20260510201613 54 174 0.0 1.0 0.00 0.00 0.00 88 1015.8
20260510201145 54 174 0.0 1.0 0.00 0.00 0.00 88 1015.9
20260510200654 54 174 0.0 1.0 0.00 0.00 0.00 88 1015.8
20260510200116 54 174 0.0 1.0 0.00 0.00 0.00 88 1015.9
20260510195650 54 174 0.0 1.0 0.00 0.00 0.00 88 1016.0
20260510195134 54 174 0.0 1.0 0.00 0.00 0.00 88 1015.9
20260510194617 54 174 0.0 0.0 0.00 0.00 0.00 88 1015.9
20260510194128 55 174 0.0 0.0 0.00 0.00 0.00 88 1016.0
20260510193655 55 174 0.0 0.0 0.00 0.00 0.00 87 1016.0
20260510193138 55 179 0.0 0.0 0.00 0.00 0.00 87 1016.0
20260510192630 55 179 0.0 0.0 0.00 0.00 0.00 87 1016.0
20260510192114 55 179 0.0 0.0 0.00 0.00 0.00 87 1016.0
20260510191614 55 179 0.0 0.0 0.00 0.00 0.00 87 1016.0
20260510191124 55 179 0.0 0.0 0.00 0.00 0.00 87 1016.1
20260510190658 55 179 0.0 1.0 0.00 0.00 0.00 87 1016.1
20260510190121 55 179 0.0 1.0 0.00 0.00 0.00 86 1016.0
20260510185633 56 179 0.0 1.0 0.00 0.00 0.00 86 1016.1
20260510185119 56 187 1.0 1.0 0.00 0.00 0.00 86 1016.1
20260510184629 56 187 0.0 0.0 0.00 0.00 0.00 85 1016.2
20260510184111 56 187 0.0 1.0 0.00 0.00 0.00 85 1016.2
20260510183623 57 187 0.0 2.0 0.00 0.00 0.00 86 1016.2
20260510183112 57 187 1.0 2.0 0.00 0.00 0.00 86 1016.2
20260510182616 56 176 1.0 2.0 0.00 0.00 0.00 86 1016.2
20260510182124 56 176 1.0 2.0 0.00 0.00 0.00 86 1016.4
20260510181635 57 176 1.0 2.0 0.00 0.00 0.00 86 1016.3
20260510181117 57 181 1.0 2.0 0.00 0.00 0.00 86 1016.3
20260510180626 57 181 0.0 2.0 0.00 0.00 0.00 85 1016.4
20260510175641 57 176 1.0 2.0 0.00 0.00 0.00 86 1016.5
20260510175130 57 174 0.0 1.0 0.00 0.00 0.00 86 1016.5
20260510174636 57 174 0.0 1.0 0.00 0.00 0.00 86 1016.4
20260510174140 58 174 0.0 1.0 0.00 0.00 0.00 86 1016.4
20260510173630 57 183 0.0 1.0 0.00 0.00 0.00 86 1016.3
20260510173141 57 183 0.0 3.0 0.00 0.00 0.00 86 1016.3
20260510172613 57 184 2.0 3.0 0.00 0.00 0.00 86 1016.2
20260510172123 57 162 1.0 2.0 0.00 0.00 0.00 85 1016.1
20260510171633 57 188 1.0 3.0 0.00 0.00 0.00 85 1016.2
20260510171116 58 187 2.0 3.0 0.00 0.00 0.00 85 1016.3
20260510170623 58 184 2.0 3.0 0.00 0.00 0.00 85 1016.2
20260510170132 58 183 1.0 3.0 0.00 0.00 0.00 85 1016.2
20260510165615 58 174 0.0 4.0 0.00 0.00 0.00 84 1016.2
20260510165148 58 192 2.0 5.0 0.00 0.00 0.00 84 1016.1
20260510164657 58 184 2.0 5.0 0.00 0.00 0.00 85 1016.2
20260510164139 58 215 2.0 4.0 0.00 0.00 0.00 84 1016.1
20260510163629 58 242 1.0 4.0 0.00 0.00 0.00 84 1016.1
20260510163132 58 191 2.0 3.0 0.00 0.00 0.00 84 1016.1
20260510162635 58 186 2.0 3.0 0.00 0.00 0.00 84 1016.1
20260510162124 59 203 2.0 3.0 0.00 0.00 0.00 84 1016.2
20260510161634 58 196 2.0 3.0 0.00 0.00 0.00 83 1016.2
20260510161116 58 181 2.0 4.0 0.00 0.00 0.00 83 1016.3
20260510160626 58 208 3.0 4.0 0.00 0.00 0.00 83 1016.4
20260510160135 58 191 1.0 3.0 0.00 0.00 0.00 82 1016.4
20260510155617 59 199 2.0 3.0 0.00 0.00 0.00 82 1016.5
20260510155121 59 191 1.0 4.0 0.00 0.00 0.00 82 1016.6
20260510154630 59 193 2.0 4.0 0.00 0.00 0.00 82 1016.6
20260510154113 59 197 1.0 2.0 0.00 0.00 0.00 82 1016.6
20260510153622 59 183 1.0 3.0 0.00 0.00 0.00 82 1016.6
20260510153151 59 183 1.0 3.0 0.00 0.00 0.00 82 1016.5
20260510152634 59 180 2.0 2.0 0.00 0.00 0.00 81 1016.6
20260510152114 59 184 2.0 2.0 0.00 0.00 0.00 81 1016.7
20260510151624 59 176 1.0 2.0 0.00 0.00 0.00 80 1016.8
20260510151129 60 176 1.0 3.0 0.00 0.00 0.00 80 1016.7
20260510150659 60 176 2.0 3.0 0.00 0.00 0.00 80 1016.6
20260510150120 60 184 1.0 4.0 0.00 0.00 0.00 79 1016.7
20260510145622 60 188 2.0 4.0 0.00 0.00 0.00 79 1016.7
20260510145132 60 181 2.0 5.0 0.00 0.00 0.00 77 1016.7
20260510144635 60 188 2.0 5.0 0.00 0.00 0.00 77 1016.7
20260510144143 60 191 2.0 3.0 0.00 0.00 0.00 76 1016.7
20260510143629 60 188 2.0 4.0 0.00 0.00 0.00 76 1016.6
20260510143155 59 188 2.0 4.0 0.00 0.00 0.00 76 1016.7
20260510142616 60 188 2.0 3.0 0.00 0.00 0.00 75 1016.8
20260510142147 60 170 1.0 4.0 0.00 0.00 0.00 75 1016.8
20260510141635 60 202 2.0 4.0 0.00 0.00 0.00 75 1016.7
20260510141117 60 183 2.0 3.0 0.00 0.00 0.00 74 1016.7
20260510140626 60 177 2.0 4.0 0.00 0.00 0.00 74 1016.7
20260510140135 60 176 2.0 4.0 0.00 0.00 0.00 74 1016.6
20260510135632 60 179 1.0 4.0 0.00 0.00 0.00 74 1016.7
20260510135117 60 181 2.0 4.0 0.00 0.00 0.00 74 1016.7
20260510134648 60 190 2.0 4.0 0.00 0.00 0.00 73 1016.7
20260510134136 60 192 2.0 4.0 0.00 0.00 0.00 73 1016.7
20260510133620 60 202 2.0 3.0 0.00 0.00 0.00 73 1016.8
20260510133148 60 201 2.0 4.0 0.00 0.00 0.00 73 1016.7
20260510132637 61 206 3.0 4.0 0.00 0.00 0.00 73 1016.8
20260510132118 61 181 2.0 3.0 0.00 0.00 0.00 73 1016.8
20260510131622 61 188 1.0 3.0 0.00 0.00 0.00 73 1016.9
20260510131133 61 175 1.0 2.0 0.00 0.00 0.00 74 1016.9
20260510130617 61 175 0.0 2.0 0.00 0.00 0.00 73 1017.0
20260510130124 61 175 0.0 2.0 0.00 0.00 0.00 73 1016.9
20260510125655 61 179 1.0 3.0 0.00 0.00 0.00 73 1016.9
20260510125117 61 186 1.0 3.0 0.00 0.00 0.00 72 1016.9
20260510124627 61 169 1.0 2.0 0.00 0.00 0.00 72 1016.9
20260510124154 61 178 0.0 3.0 0.00 0.00 0.00 72 1016.8
20260510123617 61 184 2.0 3.0 0.00 0.00 0.00 71 1016.7
20260510123126 61 188 2.0 3.0 0.00 0.00 0.00 71 1016.9
20260510122635 61 183 2.0 3.0 0.00 0.00 0.00 70 1016.8
20260510122117 61 181 2.0 3.0 0.00 0.00 0.00 70 1016.8
20260510121628 62 176 1.0 2.0 0.00 0.00 0.00 70 1016.9
20260510121112 62 172 1.0 2.0 0.00 0.00 0.00 70 1016.8
20260510120611 62 170 0.0 1.0 0.00 0.00 0.00 70 1016.8
20260510120135 62 170 0.0 2.0 0.00 0.00 0.00 70 1016.8
20260510115618 62 170 0.0 2.0 0.00 0.00 0.00 70 1016.8
20260510115128 63 172 0.0 2.0 0.00 0.00 0.00 70 1016.9
20260510114613 62 169 1.0 2.0 0.00 0.00 0.00 69 1016.8
20260510114142 62 165 0.0 2.0 0.00 0.00 0.00 69 1016.8
20260510113630 62 184 1.0 2.0 0.00 0.00 0.00 69 1016.8
20260510113138 62 158 0.0 1.0 0.00 0.00 0.00 68 1016.8
20260510112619 62 158 0.0 1.0 0.00 0.00 0.00 68 1016.7
20260510112119 63 158 0.0 2.0 0.00 0.00 0.00 67 1016.7
20260510111629 63 158 1.0 1.0 0.00 0.00 0.00 67 1016.6
20260510111111 63 158 0.0 1.0 0.00 0.00 0.00 67 1016.6
20260510110620 63 158 0.0 1.0 0.00 0.00 0.00 67 1016.6
20260510110129 63 135 1.0 2.0 0.00 0.00 0.00 67 1016.6
20260510105713 63 165 1.0 2.0 0.00 0.00 0.00 67 1016.5
20260510105204 63 157 0.0 3.0 0.00 0.00 0.00 68 1016.5
20260510104630 63 192 1.0 3.0 0.00 0.00 0.00 69 1016.5
20260510104132 63 193 1.0 3.0 0.00 0.00 0.00 69 1016.4
20260510103642 63 164 1.0 3.0 0.00 0.00 0.00 69 1016.4
20260510103130 63 169 1.0 3.0 0.00 0.00 0.00 69 1016.3
20260510102613 63 176 1.0 2.0 0.00 0.00 0.00 68 1016.3
20260510102112 64 176 1.0 2.0 0.00 0.00 0.00 68 1016.2
20260510101616 64 148 1.0 4.0 0.00 0.00 0.00 67 1016.3
20260510101124 64 176 2.0 4.0 0.00 0.00 0.00 66 1016.3
20260510100634 64 177 1.0 3.0 0.00 0.00 0.00 66 1016.2
20260510100115 65 172 0.0 4.0 0.00 0.00 0.00 65 1016.3
20260510095626 65 225 1.0 5.0 0.00 0.00 0.00 64 1016.2
20260510095136 65 205 1.0 5.0 0.00 0.00 0.00 63 1016.2
20260510094618 66 184 1.0 7.0 0.00 0.00 0.00 62 1016.2
20260510094127 66 316 2.0 7.0 0.00 0.00 0.00 61 1016.2
20260510093655 67 290 1.0 5.0 0.00 0.00 0.00 59 1016.1
20260510093132 67 290 1.0 5.0 0.00 0.00 0.00 58 1016.0
20260510092620 67 96 2.0 6.0 0.00 0.00 0.00 57 1016.0
20260510092130 68 160 1.0 6.0 0.00 0.00 0.00 56 1016.0
20260510091611 68 267 1.0 4.0 0.00 0.00 0.00 54 1016.0
20260510090633 69 165 2.0 6.0 0.00 0.00 0.00 52 1015.9
20260510090114 69 111 2.0 6.0 0.00 0.00 0.00 52 1015.8
20260510085112 69 108 3.0 5.0 0.00 0.00 0.00 52 1015.8
20260510084643 70 103 2.0 7.0 0.00 0.00 0.00 51 1015.8
20260510084131 70 91 3.0 7.0 0.00 0.00 0.00 50 1015.7
20260510083614 70 119 3.0 6.0 0.00 0.00 0.00 48 1015.7
20260510083122 70 80 3.0 6.0 0.00 0.00 0.00 48 1015.7
20260510082633 70 108 2.0 6.0 0.00 0.00 0.00 49 1015.7
20260510082115 70 110 2.0 6.0 0.00 0.00 0.00 51 1015.6
20260510081624 71 57 3.0 6.0 0.00 0.00 0.00 50 1015.7
20260510081150 71 91 3.0 5.0 0.00 0.00 0.00 50 1015.7
20260510080611 71 62 3.0 6.0 0.00 0.00 0.00 47 1015.6
20260510080118 72 80 3.0 6.0 0.00 0.00 0.00 45 1015.6
20260510075621 72 126 2.0 6.0 0.00 0.00 0.00 42 1015.8
20260510075132 72 109 3.0 6.0 0.00 0.00 0.00 42 1015.7
20260510074614 73 65 3.0 6.0 0.00 0.00 0.00 41 1015.7
20260510074123 73 109 2.0 5.0 0.00 0.00 0.00 41 1015.8
20260510073613 73 70 3.0 7.0 0.00 0.00 0.00 41 1015.7
20260510073117 72 65 3.0 7.0 0.00 0.00 0.00 41 1015.8
20260510072628 72 54 4.0 7.0 0.00 0.00 0.00 39 1015.7
20260510072158 72 64 3.0 6.0 0.00 0.00 0.00 38 1015.7
20260510071620 72 58 4.0 7.0 0.00 0.00 0.00 38 1015.8
20260510071151 73 84 3.0 7.0 0.00 0.00 0.00 39 1015.8
20260510070612 72 127 3.0 5.0 0.00 0.00 0.00 40 1015.7
20260510070132 72 77 3.0 7.0 0.00 0.00 0.00 42 1015.7
20260510065618 72 56 3.0 7.0 0.00 0.00 0.00 42 1015.8
20260510065127 73 115 4.0 7.0 0.00 0.00 0.00 42 1015.8
20260510064637 72 157 4.0 9.0 0.00 0.00 0.00 42 1015.9
20260510064120 72 18 5.0 9.0 0.00 0.00 0.00 42 1015.8
20260510063630 72 91 4.0 9.0 0.00 0.00 0.00 43 1015.8
20260510063112 72 41 5.0 9.0 0.00 0.00 0.00 42 1015.8
20260510062642 73 79 5.0 8.0 0.00 0.00 0.00 42 1015.9
20260510062115 73 65 3.0 7.0 0.00 0.00 0.00 42 1015.8
20260510061622 73 75 3.0 7.0 0.00 0.00 0.00 43 1015.8
20260510061153 73 54 2.0 7.0 0.00 0.00 0.00 41 1015.9
20260510060614 73 100 3.0 7.0 0.00 0.00 0.00 41 1016.0
20260510060123 73 91 2.0 8.0 0.00 0.00 0.00 43 1016.1
20260510055632 72 110 5.0 8.0 0.00 0.00 0.00 45 1016.1
20260510055115 72 23 5.0 9.0 0.00 0.00 0.00 45 1016.1
20260510054624 72 63 5.0 9.0 0.00 0.00 0.00 44 1016.2
20260510053617 72 79 5.0 10.0 0.00 0.00 0.00 44 1016.2
20260510053147 73 57 5.0 8.0 0.00 0.00 0.00 44 1016.2
20260510052636 72 189 3.0 7.0 0.00 0.00 0.00 44 1016.2
20260510052139 72 4 4.0 8.0 0.00 0.00 0.00 45 1016.3
20260510051628 72 34 5.0 8.0 0.00 0.00 0.00 44 1016.4
20260510051136 72 69 4.0 9.0 0.00 0.00 0.00 45 1016.6
20260510050619 71 68 6.0 9.0 0.00 0.00 0.00 48 1016.7
20260510045617 71 46 6.0 10.0 0.00 0.00 0.00 46 1016.9
20260510045123 71 68 5.0 9.0 0.00 0.00 0.00 47 1016.9
20260510044632 71 52 4.0 9.0 0.00 0.00 0.00 47 1017.0
20260510044115 71 68 6.0 9.0 0.00 0.00 0.00 45 1017.1
20260510043625 72 18 6.0 9.0 0.00 0.00 0.00 45 1017.0
20260510043133 73 121 3.0 7.0 0.00 0.00 0.00 44 1017.1
20260510042615 72 80 3.0 6.0 0.00 0.00 0.00 46 1017.3
20260510042115 72 31 2.0 6.0 0.00 0.00 0.00 44 1017.3
20260510041620 71 187 2.0 7.0 0.00 0.00 0.00 44 1017.3
20260510041131 72 46 5.0 7.0 0.00 0.00 0.00 45 1017.3
20260510040613 71 61 3.0 6.0 0.00 0.00 0.00 47 1017.4
20260510040143 71 70 3.0 7.0 0.00 0.00 0.00 45 1017.6
20260510035630 71 101 2.0 8.0 0.00 0.00 0.00 45 1017.5
20260510035135 71 142 3.0 8.0 0.00 0.00 0.00 47 1017.7
20260510034640 70 79 5.0 8.0 0.00 0.00 0.00 47 1017.8
20260510034125 70 72 3.0 7.0 0.00 0.00 0.00 49 1017.8
20260510033634 70 81 5.0 9.0 0.00 0.00 0.00 49 1017.8
20260510033115 70 58 5.0 9.0 0.00 0.00 0.00 48 1017.9
20260510032625 69 136 4.0 8.0 0.00 0.00 0.00 49 1017.9
20260510032134 69 134 2.0 9.0 0.00 0.00 0.00 51 1018.0
20260510031615 70 44 5.0 8.0 0.00 0.00 0.00 50 1018.0
20260510031145 69 120 3.0 7.0 0.00 0.00 0.00 53 1018.1
20260510030614 70 71 4.0 7.0 0.00 0.00 0.00 50 1018.1
20260510030120 69 167 2.0 7.0 0.00 0.00 0.00 53 1018.3
20260510025631 69 130 3.0 8.0 0.00 0.00 0.00 53 1018.2
20260510025113 68 60 4.0 9.0 0.00 0.00 0.00 53 1018.3
20260510024622 68 38 5.0 9.0 0.00 0.00 0.00 54 1018.3
20260510024131 68 40 4.0 7.0 0.00 0.00 0.00 54 1018.3
20260510023615 68 80 2.0 8.0 0.00 0.00 0.00 53 1018.2
20260510023123 68 75 5.0 8.0 0.00 0.00 0.00 51 1018.3
20260510022614 68 40 4.0 7.0 0.00 0.00 0.00 52 1018.3
20260510022140 68 84 3.0 6.0 0.00 0.00 0.00 52 1018.3
20260510021629 68 49 2.0 6.0 0.00 0.00 0.00 50 1018.3
20260510021158 68 13 3.0 6.0 0.00 0.00 0.00 52 1018.3
20260510020619 68 33 3.0 7.0 0.00 0.00 0.00 49 1018.4
20260510020128 67 87 3.0 7.0 0.00 0.00 0.00 49 1018.5
20260510015611 68 56 4.0 6.0 0.00 0.00 0.00 55 1018.3
20260510015111 68 77 3.0 5.0 0.00 0.00 0.00 55 1018.4
20260510014638 67 169 3.0 8.0 0.00 0.00 0.00 56 1018.5
20260510014117 67 43 4.0 7.0 0.00 0.00 0.00 54 1018.6
20260510013628 66 91 3.0 6.0 0.00 0.00 0.00 55 1018.6
20260510013137 66 79 3.0 7.0 0.00 0.00 0.00 58 1018.7
20260510012617 66 87 4.0 7.0 0.00 0.00 0.00 59 1018.7
20260510012127 66 70 4.0 8.0 0.00 0.00 0.00 59 1018.7
20260510011637 66 79 5.0 8.0 0.00 0.00 0.00 60 1018.8
20260510011120 66 82 4.0 7.0 0.00 0.00 0.00 60 1018.8
20260510010626 66 39 3.0 7.0 0.00 0.00 0.00 60 1018.9
20260510010133 66 7 4.0 7.0 0.00 0.00 0.00 58 1018.8
20260510005615 66 56 3.0 6.0 0.00 0.00 0.00 61 1018.8
20260510005124 66 45 3.0 6.0 0.00 0.00 0.00 63 1018.6
20260510004632 65 68 3.0 6.0 0.00 0.00 0.00 62 1018.6
20260510004114 66 30 3.0 6.0 0.00 0.00 0.00 61 1018.6
20260510003622 65 84 1.0 6.0 0.00 0.00 0.00 60 1018.6
20260510003111 65 68 3.0 6.0 0.00 0.00 0.00 61 1018.6
20260510002618 65 187 3.0 7.0 0.00 0.00 0.00 58 1018.6
20260510002130 65 174 2.0 7.0 0.00 0.00 0.00 59 1018.5
20260510001119 64 284 1.0 3.0 0.00 0.00 0.00 58 1018.6
20260510000628 64 203 1.0 3.0 0.00 0.00 0.00 56 1018.8
20260510000159 64 76 2.0 3.0 0.00 0.00 0.00 57 1018.7
20260509235621 64 189 2.0 4.0 0.00 0.00 0.00 58 1018.8
20260509235129 63 74 2.0 4.0 0.00 0.00 0.00 58 1018.7
20260509234636 63 167 1.0 4.0 0.00 0.00 0.00 58 1018.7
20260509234120 64 97 1.0 4.0 0.00 0.00 0.00 59 1018.7
20260509233628 63 130 1.0 3.0 0.00 0.00 0.00 60 1018.7
20260509233133 63 49 2.0 4.0 0.00 0.00 0.00 59 1018.7
20260509232616 62 148 2.0 4.0 0.00 0.00 0.00 59 1018.6
20260509232126 62 178 0.0 3.0 0.00 0.00 0.00 59 1018.6
20260509231636 62 189 1.0 3.0 0.00 0.00 0.00 59 1018.7
20260509231118 62 82 1.0 2.0 0.00 0.00 0.00 60 1018.7
20260509230645 61 178 0.0 1.0 0.00 0.00 0.00 59 1018.6
20260509230132 61 172 0.0 1.0 0.00 0.00 0.00 60 1018.6
20260509225615 61 172 1.0 2.0 0.00 0.00 0.00 60 1018.6
20260509225125 60 172 1.0 2.0 0.00 0.00 0.00 59 1018.5
20260509224633 59 167 0.0 3.0 0.00 0.00 0.00 60 1018.6
20260509224135 58 180 1.0 3.0 0.00 0.00 0.00 59 1018.5
20260509223626 58 167 1.0 3.0 0.00 0.00 0.00 58 1018.6
20260509223152 58 176 1.0 2.0 0.00 0.00 0.00 60 1018.7
20260509222613 58 175 0.0 2.0 0.00 0.00 0.00 67 1018.7
20260509222144 57 176 0.0 2.0 0.00 0.00 0.00 67 1018.6
20260509221632 56 175 1.0 2.0 0.00 0.00 0.00 68 1018.7
20260509221113 56 179 1.0 2.0 0.00 0.00 0.00 69 1018.7
20260509220623 55 176 1.0 2.0 0.00 0.00 0.00 69 1018.7
20260509220133 55 176 0.0 0.0 0.00 0.00 0.00 75 1018.6
20260509215617 54 176 0.0 0.0 0.00 0.00 0.00 78 1018.7
20260509215124 53 176 0.0 0.0 0.00 0.00 0.00 79 1018.7
20260509214656 51 176 0.0 0.0 0.00 0.00 0.00 80 1018.6
20260509214118 50 176 0.0 0.0 0.00 0.00 0.00 80 1018.5
20260509213629 50 176 0.0 0.0 0.00 0.00 0.00 82 1018.6
20260509213112 49 176 0.0 1.0 0.00 0.00 0.00 82 1018.5
20260509212622 48 176 0.0 1.0 0.00 0.00 0.00 83 1018.4
20260509212133 47 176 0.0 0.0 0.00 0.00 0.00 83 1018.3